Time,TemperatureF,DewpointF,PressureIn,WindDirection,WindDirectionDegrees,WindSpeedMPH,WindSpeedGustMPH,Humidity,HourlyPrecipIn,Conditions,Clouds,dailyrainin,SoftwareType,DateUTC
2013-04-03 00:00:00,27.4,16.1,30.23,WNW,303,1.0,8.0,62,0.00,,,0.00,VWS V14.01,2013-04-03 04:00:00,
2013-04-03 00:05:00,27.2,15.9,30.23,WNW,303,0.0,6.0,62,0.00,,,0.00,VWS V14.01,2013-04-03 04:05:00,
2013-04-03 00:10:00,27.1,15.8,30.23,WNW,303,0.0,6.0,62,0.00,,,0.00,VWS V14.01,2013-04-03 04:10:00,
2013-04-03 00:15:00,27.0,16.1,30.23,WNW,303,1.0,6.0,63,0.00,,,0.00,VWS V14.01,2013-04-03 04:15:00,
2013-04-03 00:20:00,26.9,16.0,30.23,WNW,295,0.0,6.0,63,0.00,,,0.00,VWS V14.01,2013-04-03 04:20:00,
2013-04-03 00:25:00,26.8,16.3,30.23,WNW,295,1.0,6.0,64,0.00,,,0.00,VWS V14.01,2013-04-03 04:25:00,
2013-04-03 00:30:00,26.7,16.2,30.23,WNW,294,0.0,6.0,64,0.00,,,0.00,VWS V14.01,2013-04-03 04:30:00,
2013-04-03 00:35:00,26.6,16.1,30.23,WNW,294,0.0,6.0,64,0.00,,,0.00,VWS V14.01,2013-04-03 04:35:00,
2013-04-03 00:40:00,26.4,15.9,30.23,WNW,294,0.0,6.0,64,0.00,,,0.00,VWS V14.01,2013-04-03 04:40:00,
2013-04-03 00:45:00,26.2,16.1,30.23,WNW,294,1.0,6.0,65,0.00,,,0.00,VWS V14.01,2013-04-03 04:45:00,
2013-04-03 00:50:00,26.1,16.0,30.23,WNW,294,0.0,6.0,65,0.00,,,0.00,VWS V14.01,2013-04-03 04:50:00,
2013-04-03 00:55:00,26.0,15.9,30.23,WNW,294,0.0,6.0,65,0.00,,,0.00,VWS V14.01,2013-04-03 04:55:00,
2013-04-03 01:00:00,25.8,15.7,30.23,WNW,295,2.0,2.0,65,0.00,,,0.00,VWS V14.01,2013-04-03 05:00:00,
2013-04-03 01:05:00,25.7,15.6,30.23,WNW,295,0.0,4.0,65,0.00,,,0.00,VWS V14.01,2013-04-03 05:05:00,
2013-04-03 01:10:00,25.7,15.6,30.22,WNW,295,0.0,4.0,65,0.00,,,0.00,VWS V14.01,2013-04-03 05:10:00,
2013-04-03 01:15:00,25.7,15.6,30.22,WNW,295,0.0,5.0,65,0.00,,,0.00,VWS V14.01,2013-04-03 05:15:00,
2013-04-03 01:20:00,25.6,15.5,30.23,WNW,295,0.0,5.0,65,0.00,,,0.00,VWS V14.01,2013-04-03 05:20:00,
2013-04-03 01:25:00,25.4,15.6,30.23,WNW,295,0.0,5.0,66,0.00,,,0.00,VWS V14.01,2013-04-03 05:25:00,
2013-04-03 01:30:00,25.3,15.6,30.23,WNW,295,0.0,5.0,66,0.00,,,0.00,VWS V14.01,2013-04-03 05:30:00,
2013-04-03 01:35:00,25.2,15.4,30.23,WNW,295,0.0,5.0,66,0.00,,,0.00,VWS V14.01,2013-04-03 05:35:00,
2013-04-03 01:40:00,25.0,15.6,30.23,WNW,295,0.0,5.0,67,0.00,,,0.00,VWS V14.01,2013-04-03 05:40:00,
2013-04-03 01:45:00,24.8,15.4,30.23,WNW,292,0.0,5.0,67,0.00,,,0.00,VWS V14.01,2013-04-03 05:45:00,
2013-04-03 01:50:00,24.7,15.3,30.23,WNW,292,0.0,5.0,67,0.00,,,0.00,VWS V14.01,2013-04-03 05:50:00,
2013-04-03 01:55:00,24.9,15.9,30.24,WNW,292,0.0,5.0,68,0.00,,,0.00,VWS V14.01,2013-04-03 05:55:00,
2013-04-03 02:00:00,25.1,16.0,30.23,WNW,291,0.0,0.0,68,0.00,,,0.00,VWS V14.01,2013-04-03 06:00:00,
2013-04-03 02:05:00,25.2,15.8,30.23,WNW,291,0.0,2.0,67,0.00,,,0.00,VWS V14.01,2013-04-03 06:05:00,
2013-04-03 02:10:00,25.1,16.0,30.24,WNW,291,0.0,2.0,68,0.00,,,0.00,VWS V14.01,2013-04-03 06:10:00,
2013-04-03 02:15:00,24.9,15.9,30.23,WNW,291,0.0,2.0,68,0.00,,,0.00,VWS V14.01,2013-04-03 06:15:00,
2013-04-03 02:20:00,24.8,15.8,30.24,WNW,288,1.0,3.0,68,0.00,,,0.00,VWS V14.01,2013-04-03 06:20:00,
2013-04-03 02:25:00,24.7,15.7,30.24,WNW,289,0.0,3.0,68,0.00,,,0.00,VWS V14.01,2013-04-03 06:25:00,
2013-04-03 02:30:00,24.7,16.0,30.24,WNW,288,0.0,3.0,69,0.00,,,0.00,VWS V14.01,2013-04-03 06:30:00,
2013-04-03 02:35:00,24.7,15.7,30.23,WNW,289,0.0,3.0,68,0.00,,,0.00,VWS V14.01,2013-04-03 06:35:00,
2013-04-03 02:40:00,24.4,15.7,30.24,WNW,288,0.0,3.0,69,0.00,,,0.00,VWS V14.01,2013-04-03 06:40:00,
2013-04-03 02:45:00,24.1,15.4,30.24,WNW,289,0.0,3.0,69,0.00,,,0.00,VWS V14.01,2013-04-03 06:45:00,
2013-04-03 02:50:00,23.9,15.2,30.24,WNW,289,0.0,3.0,69,0.00,,,0.00,VWS V14.01,2013-04-03 06:50:00,
2013-04-03 02:55:00,23.6,15.3,30.23,WNW,289,0.0,3.0,70,0.00,,,0.00,VWS V14.01,2013-04-03 06:55:00,
2013-04-03 03:00:00,23.4,15.1,30.23,WNW,288,0.0,0.0,70,0.00,,,0.00,VWS V14.01,2013-04-03 07:00:00,
2013-04-03 03:05:00,23.3,15.3,30.24,WNW,288,0.0,0.0,71,0.00,,,0.00,VWS V14.01,2013-04-03 07:05:00,
2013-04-03 03:10:00,23.1,15.1,30.24,WNW,289,0.0,0.0,71,0.00,,,0.00,VWS V14.01,2013-04-03 07:10:00,
2013-04-03 03:15:00,23.0,15.3,30.24,WNW,289,0.0,0.0,72,0.00,,,0.00,VWS V14.01,2013-04-03 07:15:00,
2013-04-03 03:20:00,22.8,15.5,30.24,WNW,289,0.0,0.0,73,0.00,,,0.00,VWS V14.01,2013-04-03 07:20:00,
2013-04-03 03:25:00,22.7,15.7,30.23,WNW,289,0.0,1.0,74,0.00,,,0.00,VWS V14.01,2013-04-03 07:25:00,
2013-04-03 03:30:00,22.7,15.7,30.24,WNW,288,0.0,1.0,74,0.00,,,0.00,VWS V14.01,2013-04-03 07:30:00,
2013-04-03 03:35:00,22.6,15.6,30.24,WNW,288,0.0,1.0,74,0.00,,,0.00,VWS V14.01,2013-04-03 07:35:00,
2013-04-03 03:40:00,22.5,15.5,30.24,WNW,289,0.0,2.0,74,0.00,,,0.00,VWS V14.01,2013-04-03 07:40:00,
2013-04-03 03:45:00,22.5,15.8,30.24,WNW,285,2.0,3.0,75,0.00,,,0.00,VWS V14.01,2013-04-03 07:45:00,
2013-04-03 03:50:00,22.7,16.0,30.24,WNW,284,0.0,3.0,75,0.00,,,0.00,VWS V14.01,2013-04-03 07:50:00,
2013-04-03 03:55:00,22.8,16.1,30.24,WNW,284,1.0,3.0,75,0.00,,,0.00,VWS V14.01,2013-04-03 07:55:00,
2013-04-03 04:00:00,22.8,16.1,30.24,WNW,284,0.0,3.0,75,0.00,,,0.00,VWS V14.01,2013-04-03 08:00:00,
2013-04-03 04:05:00,22.9,16.2,30.24,WNW,284,0.0,1.0,75,0.00,,,0.00,VWS V14.01,2013-04-03 08:05:00,
2013-04-03 04:10:00,22.9,16.2,30.24,WNW,284,2.0,4.0,75,0.00,,,0.00,VWS V14.01,2013-04-03 08:10:00,
2013-04-03 04:15:00,23.1,16.4,30.24,West,274,4.0,6.0,75,0.00,,,0.00,VWS V14.01,2013-04-03 08:15:00,
2013-04-03 04:20:00,23.3,16.6,30.24,West,272,3.0,6.0,75,0.00,,,0.00,VWS V14.01,2013-04-03 08:20:00,
2013-04-03 04:25:00,23.4,16.7,30.24,West,261,2.0,6.0,75,0.00,,,0.00,VWS V14.01,2013-04-03 08:25:00,
2013-04-03 04:30:00,23.5,16.5,30.24,West,265,5.0,7.0,74,0.00,,,0.00,VWS V14.01,2013-04-03 08:30:00,
2013-04-03 04:35:00,23.8,16.7,30.24,WSW,257,3.0,7.0,74,0.00,,,0.00,VWS V14.01,2013-04-03 08:35:00,
2013-04-03 04:40:00,23.9,16.8,30.24,WSW,256,1.0,7.0,74,0.00,,,0.00,VWS V14.01,2013-04-03 08:40:00,
2013-04-03 04:45:00,23.8,16.7,30.24,WSW,252,3.0,7.0,74,0.00,,,0.00,VWS V14.01,2013-04-03 08:45:00,
2013-04-03 04:50:00,23.7,16.6,30.25,WSW,252,2.0,7.0,74,0.00,,,0.00,VWS V14.01,2013-04-03 08:50:00,
2013-04-03 04:55:00,23.6,16.5,30.25,WSW,252,1.0,7.0,74,0.00,,,0.00,VWS V14.01,2013-04-03 08:55:00,
2013-04-03 05:00:00,23.6,16.5,30.25,WSW,252,1.0,7.0,74,0.00,,,0.00,VWS V14.01,2013-04-03 09:00:00,
2013-04-03 05:05:00,23.5,16.8,30.25,WSW,252,0.0,4.0,75,0.00,,,0.00,VWS V14.01,2013-04-03 09:05:00,
2013-04-03 05:10:00,23.6,16.9,30.25,WSW,252,1.0,4.0,75,0.00,,,0.00,VWS V14.01,2013-04-03 09:10:00,
2013-04-03 05:15:00,23.9,17.5,30.26,WSW,252,6.0,6.0,76,0.00,,,0.00,VWS V14.01,2013-04-03 09:15:00,
2013-04-03 05:20:00,24.1,17.6,30.26,WSW,251,2.0,6.0,76,0.00,,,0.00,VWS V14.01,2013-04-03 09:20:00,
2013-04-03 05:25:00,24.3,17.5,30.25,WSW,251,3.0,6.0,75,0.00,,,0.00,VWS V14.01,2013-04-03 09:25:00,
2013-04-03 05:30:00,24.5,17.7,30.26,WSW,252,3.0,6.0,75,0.00,,,0.00,VWS V14.01,2013-04-03 09:30:00,
2013-04-03 05:35:00,24.7,17.9,30.26,WSW,254,3.0,7.0,75,0.00,,,0.00,VWS V14.01,2013-04-03 09:35:00,
2013-04-03 05:40:00,24.8,18.0,30.26,WSW,254,2.0,7.0,75,0.00,,,0.00,VWS V14.01,2013-04-03 09:40:00,
2013-04-03 05:45:00,24.9,17.8,30.26,WSW,249,1.0,8.0,74,0.00,,,0.00,VWS V14.01,2013-04-03 09:45:00,
2013-04-03 05:50:00,25.1,18.0,30.26,WSW,249,0.0,8.0,74,0.00,,,0.00,VWS V14.01,2013-04-03 09:50:00,
2013-04-03 05:55:00,25.0,17.9,30.26,WSW,250,4.0,8.0,74,0.00,,,0.00,VWS V14.01,2013-04-03 09:55:00,
2013-04-03 06:00:00,25.0,17.9,30.26,WSW,257,5.0,8.0,74,0.00,,,0.00,VWS V14.01,2013-04-03 10:00:00,
2013-04-03 06:05:00,24.8,17.7,30.26,WSW,257,1.0,5.0,74,0.00,,,0.00,VWS V14.01,2013-04-03 10:05:00,
2013-04-03 06:10:00,24.7,17.6,30.27,WSW,257,1.0,5.0,74,0.00,,,0.00,VWS V14.01,2013-04-03 10:10:00,
2013-04-03 06:15:00,24.5,17.4,30.27,WSW,240,1.0,6.0,74,0.00,,,0.00,VWS V14.01,2013-04-03 10:15:00,
2013-04-03 06:20:00,24.3,17.5,30.27,WSW,241,5.0,6.0,75,0.00,,,0.00,VWS V14.01,2013-04-03 10:20:00,
2013-04-03 06:25:00,24.2,17.4,30.27,SW,233,0.0,6.0,75,0.00,,,0.00,VWS V14.01,2013-04-03 10:25:00,
2013-04-03 06:30:00,24.1,17.3,30.27,SW,233,2.0,6.0,75,0.00,,,0.00,VWS V14.01,2013-04-03 10:30:00,
2013-04-03 06:35:00,23.9,17.5,30.27,WSW,241,1.0,6.0,76,0.00,,,0.00,VWS V14.01,2013-04-03 10:35:00,
2013-04-03 06:40:00,23.9,17.5,30.27,WSW,241,0.0,6.0,76,0.00,,,0.00,VWS V14.01,2013-04-03 10:40:00,
2013-04-03 06:45:00,23.8,17.7,30.28,WSW,241,2.0,6.0,77,0.00,,,0.00,VWS V14.01,2013-04-03 10:45:00,
2013-04-03 06:50:00,23.8,17.7,30.28,WSW,241,2.0,6.0,77,0.00,,,0.00,VWS V14.01,2013-04-03 10:50:00,
2013-04-03 06:55:00,23.7,17.6,30.28,WSW,241,0.0,6.0,77,0.00,,,0.00,VWS V14.01,2013-04-03 10:55:00,
2013-04-03 07:00:00,23.5,17.4,30.29,WSW,241,0.0,6.0,77,0.00,,,0.00,VWS V14.01,2013-04-03 11:00:00,
2013-04-03 07:05:00,23.3,17.2,30.30,WSW,241,0.0,1.0,77,0.00,,,0.00,VWS V14.01,2013-04-03 11:05:00,
2013-04-03 07:10:00,22.9,16.8,30.30,WSW,241,0.0,2.0,77,0.00,,,0.00,VWS V14.01,2013-04-03 11:10:00,
2013-04-03 07:15:00,22.6,16.8,30.31,WSW,241,0.0,4.0,78,0.00,,,0.00,VWS V14.01,2013-04-03 11:15:00,
2013-04-03 07:20:00,22.5,17.0,30.31,WSW,241,1.0,4.0,79,0.00,,,0.00,VWS V14.01,2013-04-03 11:20:00,
2013-04-03 07:25:00,22.7,17.2,30.31,WSW,242,0.0,5.0,79,0.00,,,0.00,VWS V14.01,2013-04-03 11:25:00,
2013-04-03 07:30:00,22.8,17.3,30.31,WSW,241,2.0,5.0,79,0.00,,,0.00,VWS V14.01,2013-04-03 11:30:00,
2013-04-03 07:35:00,22.9,17.4,30.31,WSW,241,0.0,5.0,79,0.00,,,0.00,VWS V14.01,2013-04-03 11:35:00,
2013-04-03 07:40:00,22.9,17.4,30.32,WSW,242,1.0,5.0,79,0.00,,,0.00,VWS V14.01,2013-04-03 11:40:00,
2013-04-03 07:45:00,23.0,17.8,30.32,WSW,242,0.0,5.0,80,0.00,,,0.00,VWS V14.01,2013-04-03 11:45:00,
2013-04-03 07:50:00,23.1,17.9,30.32,WSW,242,0.0,5.0,80,0.00,,,0.00,VWS V14.01,2013-04-03 11:50:00,
2013-04-03 07:55:00,23.3,18.1,30.32,WSW,241,0.0,5.0,80,0.00,,,0.00,VWS V14.01,2013-04-03 11:55:00,
2013-04-03 08:00:00,23.5,18.5,30.32,WSW,245,0.0,5.0,81,0.00,,,0.00,VWS V14.01,2013-04-03 12:00:00,
2013-04-03 08:05:00,24.0,19.0,30.33,NW,308,2.0,8.0,81,0.00,,,0.00,VWS V14.01,2013-04-03 12:05:00,
2013-04-03 08:10:00,24.5,19.5,30.33,WNW,296,0.0,8.0,81,0.00,,,0.00,VWS V14.01,2013-04-03 12:10:00,
2013-04-03 08:15:00,25.1,20.1,30.32,NW,307,0.0,8.0,81,0.00,,,0.00,VWS V14.01,2013-04-03 12:15:00,
2013-04-03 08:20:00,25.6,20.6,30.32,NW,322,0.0,8.0,81,0.00,,,0.00,VWS V14.01,2013-04-03 12:20:00,
2013-04-03 08:25:00,26.1,21.1,30.32,West,262,1.0,8.0,81,0.00,,,0.00,VWS V14.01,2013-04-03 12:25:00,
2013-04-03 08:30:00,26.4,21.1,30.33,NW,306,2.0,9.0,80,0.00,,,0.00,VWS V14.01,2013-04-03 12:30:00,
2013-04-03 08:35:00,26.7,21.1,30.33,NNW,329,1.0,9.0,79,0.00,,,0.00,VWS V14.01,2013-04-03 12:35:00,
2013-04-03 08:40:00,27.1,21.2,30.33,NW,325,5.0,9.0,78,0.00,,,0.00,VWS V14.01,2013-04-03 12:40:00,
2013-04-03 08:45:00,27.3,21.1,30.33,NW,313,0.0,9.0,77,0.00,,,0.00,VWS V14.01,2013-04-03 12:45:00,
2013-04-03 08:50:00,28.1,21.5,30.33,NW,313,0.0,9.0,76,0.00,,,0.00,VWS V14.01,2013-04-03 12:50:00,
2013-04-03 08:55:00,28.6,21.4,30.33,NW,320,1.0,9.0,74,0.00,,,0.00,VWS V14.01,2013-04-03 12:55:00,
2013-04-03 09:00:00,29.1,20.9,30.33,NNE,18,4.0,9.0,71,0.00,,,0.00,VWS V14.01,2013-04-03 13:00:00,
2013-04-03 09:05:00,29.5,20.6,30.33,NW,322,1.0,8.0,69,0.00,,,0.00,VWS V14.01,2013-04-03 13:05:00,
2013-04-03 09:10:00,30.1,20.8,30.34,NW,310,0.0,8.0,68,0.00,,,0.00,VWS V14.01,2013-04-03 13:10:00,
2013-04-03 09:15:00,30.6,20.6,30.34,WNW,298,4.0,8.0,66,0.00,,,0.00,VWS V14.01,2013-04-03 13:15:00,
2013-04-03 09:20:00,30.9,20.2,30.34,North,355,1.0,8.0,64,0.00,,,0.00,VWS V14.01,2013-04-03 13:20:00,
2013-04-03 09:25:00,30.6,19.1,30.34,NNE,30,1.0,8.0,62,0.00,,,0.00,VWS V14.01,2013-04-03 13:25:00,
2013-04-03 09:30:00,30.8,19.0,30.34,North,5,1.0,9.0,61,0.00,,,0.00,VWS V14.01,2013-04-03 13:30:00,
2013-04-03 09:35:00,30.6,18.4,30.35,West,271,1.0,11.0,60,0.00,,,0.00,VWS V14.01,2013-04-03 13:35:00,
2013-04-03 09:40:00,30.5,18.3,30.36,NNW,327,0.0,11.0,60,0.00,,,0.00,VWS V14.01,2013-04-03 13:40:00,
2013-04-03 09:45:00,31.3,18.6,30.36,NNW,336,4.0,11.0,59,0.00,,,0.00,VWS V14.01,2013-04-03 13:45:00,
2013-04-03 09:50:00,31.5,18.4,30.36,NW,306,5.0,12.0,58,0.00,,,0.00,VWS V14.01,2013-04-03 13:50:00,
2013-04-03 09:55:00,31.9,18.4,30.36,NW,319,1.0,12.0,57,0.00,,,0.00,VWS V14.01,2013-04-03 13:55:00,
2013-04-03 10:00:00,31.7,17.8,30.36,West,277,1.0,12.0,56,0.00,,,0.00,VWS V14.01,2013-04-03 14:00:00,
2013-04-03 10:05:00,31.6,17.7,30.36,NNW,336,7.0,12.0,56,0.00,,,0.00,VWS V14.01,2013-04-03 14:05:00,
2013-04-03 10:10:00,32.1,18.6,30.36,WNW,291,8.0,12.0,57,0.00,,,0.00,VWS V14.01,2013-04-03 14:10:00,
2013-04-03 10:15:00,32.4,17.6,30.36,West,272,5.0,12.0,54,0.00,,,0.00,VWS V14.01,2013-04-03 14:15:00,
2013-04-03 10:20:00,32.2,17.4,30.36,NW,304,2.0,14.0,54,0.00,,,0.00,VWS V14.01,2013-04-03 14:20:00,
2013-04-03 10:25:00,32.9,18.1,30.37,NNW,334,5.0,14.0,54,0.00,,,0.00,VWS V14.01,2013-04-03 14:25:00,
2013-04-03 10:30:00,32.8,16.7,30.37,WNW,293,6.0,14.0,51,0.00,,,0.00,VWS V14.01,2013-04-03 14:30:00,
2013-04-03 10:35:00,33.0,17.8,30.37,NNW,332,7.0,14.0,53,0.00,,,0.00,VWS V14.01,2013-04-03 14:35:00,
2013-04-03 10:40:00,33.2,16.6,30.37,WNW,299,5.0,15.0,50,0.00,,,0.00,VWS V14.01,2013-04-03 14:40:00,
2013-04-03 10:45:00,33.5,16.9,30.37,NW,307,6.0,15.0,50,0.00,,,0.00,VWS V14.01,2013-04-03 14:45:00,
2013-04-03 10:50:00,33.4,16.3,30.37,West,277,6.0,15.0,49,0.00,,,0.00,VWS V14.01,2013-04-03 14:50:00,
2013-04-03 10:55:00,33.6,17.0,30.38,North,355,1.0,15.0,50,0.00,,,0.00,VWS V14.01,2013-04-03 14:55:00,
2013-04-03 11:00:00,33.9,16.8,30.38,North,360,4.0,15.0,49,0.00,,,0.00,VWS V14.01,2013-04-03 15:00:00,
2013-04-03 11:05:00,34.3,17.1,30.38,West,276,7.0,14.0,49,0.00,,,0.00,VWS V14.01,2013-04-03 15:05:00,
2013-04-03 11:10:00,34.4,16.8,30.38,NW,311,6.0,14.0,48,0.00,,,0.00,VWS V14.01,2013-04-03 15:10:00,
2013-04-03 11:15:00,34.5,17.3,30.38,NW,304,1.0,14.0,49,0.00,,,0.00,VWS V14.01,2013-04-03 15:15:00,
2013-04-03 11:20:00,35.0,17.8,30.38,NW,304,0.0,14.0,49,0.00,,,0.00,VWS V14.01,2013-04-03 15:20:00,
2013-04-03 11:24:00,35.8,18.0,30.39,North,5,9.0,14.0,48,0.00,,,0.00,VWS V14.01,2013-04-03 15:24:00,
2013-04-03 11:29:00,35.5,16.8,30.38,NNE,31,10.0,14.0,46,0.00,,,0.00,VWS V14.01,2013-04-03 15:29:00,
2013-04-03 11:34:00,35.7,18.0,30.38,West,271,1.0,14.0,48,0.00,,,0.00,VWS V14.01,2013-04-03 15:34:00,
2013-04-03 11:39:00,36.1,18.3,30.38,NW,325,3.0,14.0,48,0.00,,,0.00,VWS V14.01,2013-04-03 15:39:00,
2013-04-03 11:44:00,36.1,17.3,30.38,NNW,327,8.0,14.0,46,0.00,,,0.00,VWS V14.01,2013-04-03 15:44:00,
2013-04-03 11:50:00,35.7,18.4,30.39,NW,311,4.0,14.0,49,0.00,,,0.00,VWS V14.01,2013-04-03 15:50:00,
2013-04-03 11:55:00,35.7,18.0,30.39,WNW,296,8.0,14.0,48,0.00,,,0.00,VWS V14.01,2013-04-03 15:55:00,
2013-04-03 12:00:00,35.9,17.6,30.39,WNW,303,7.0,14.0,47,0.00,,,0.00,VWS V14.01,2013-04-03 16:00:00,
2013-04-03 12:05:00,36.4,18.6,30.39,WNW,290,7.0,18.0,48,0.00,,,0.00,VWS V14.01,2013-04-03 16:05:00,
2013-04-03 12:10:00,36.4,18.1,30.40,WNW,290,9.0,18.0,47,0.00,,,0.00,VWS V14.01,2013-04-03 16:10:00,
2013-04-03 12:15:00,36.4,17.1,30.40,WSW,251,10.0,18.0,45,0.00,,,0.00,VWS V14.01,2013-04-03 16:15:00,
2013-04-03 12:20:00,36.4,18.1,30.39,WNW,288,11.0,18.0,47,0.00,,,0.00,VWS V14.01,2013-04-03 16:20:00,
2013-04-03 12:25:00,36.9,18.6,30.39,WNW,284,4.0,18.0,47,0.00,,,0.00,VWS V14.01,2013-04-03 16:25:00,
2013-04-03 12:30:00,37.8,18.4,30.39,NE,44,12.0,18.0,45,0.00,,,0.00,VWS V14.01,2013-04-03 16:30:00,
2013-04-03 12:35:00,37.8,18.4,30.39,NW,317,6.0,18.0,45,0.00,,,0.00,VWS V14.01,2013-04-03 16:35:00,
2013-04-03 12:40:00,37.6,17.7,30.39,NW,304,7.0,18.0,44,0.00,,,0.00,VWS V14.01,2013-04-03 16:40:00,
2013-04-03 12:45:00,37.4,17.5,30.39,West,281,2.0,18.0,44,0.00,,,0.00,VWS V14.01,2013-04-03 16:45:00,
2013-04-03 12:50:00,38.0,18.0,30.39,NNW,345,6.0,18.0,44,0.00,,,0.00,VWS V14.01,2013-04-03 16:50:00,
2013-04-03 12:55:00,37.8,17.9,30.39,WSW,252,5.0,18.0,44,0.00,,,0.00,VWS V14.01,2013-04-03 16:55:00,
2013-04-03 13:00:00,37.9,18.0,30.39,WNW,298,0.0,2.0,44,0.00,,,0.00,VWS V14.01,2013-04-03 17:00:00,
2013-04-03 13:05:00,38.4,18.4,30.38,NE,34,1.0,13.0,44,0.00,,,0.00,VWS V14.01,2013-04-03 17:05:00,
2013-04-03 13:10:00,38.6,18.0,30.38,WNW,292,5.0,13.0,43,0.00,,,0.00,VWS V14.01,2013-04-03 17:10:00,
2013-04-03 13:15:00,38.4,17.9,30.38,NNW,341,6.0,15.0,43,0.00,,,0.00,VWS V14.01,2013-04-03 17:15:00,
2013-04-03 13:20:00,38.7,19.2,30.38,NW,304,4.0,15.0,45,0.00,,,0.00,VWS V14.01,2013-04-03 17:20:00,
2013-04-03 13:25:00,38.8,18.8,30.38,WNW,287,6.0,15.0,44,0.00,,,0.00,VWS V14.01,2013-04-03 17:25:00,
2013-04-03 13:30:00,38.8,18.8,30.38,West,281,8.0,15.0,44,0.00,,,0.00,VWS V14.01,2013-04-03 17:30:00,
2013-04-03 13:35:00,39.1,19.0,30.37,WNW,294,7.0,15.0,44,0.00,,,0.00,VWS V14.01,2013-04-03 17:35:00,
2013-04-03 13:40:00,39.1,19.0,30.37,West,267,5.0,15.0,44,0.00,,,0.00,VWS V14.01,2013-04-03 17:40:00,
2013-04-03 13:45:00,39.5,19.4,30.36,WNW,298,8.0,15.0,44,0.00,,,0.00,VWS V14.01,2013-04-03 17:45:00,
2013-04-03 13:50:00,39.8,19.7,30.37,WNW,292,6.0,15.0,44,0.00,,,0.00,VWS V14.01,2013-04-03 17:50:00,
2013-04-03 13:55:00,39.3,19.2,30.37,NNW,336,9.0,15.0,44,0.00,,,0.00,VWS V14.01,2013-04-03 17:55:00,
2013-04-03 14:00:00,39.2,18.6,30.37,North,9,4.0,4.0,43,0.00,,,0.00,VWS V14.01,2013-04-03 18:00:00,
2013-04-03 14:05:00,39.7,19.6,30.37,WNW,298,5.0,16.0,44,0.00,,,0.00,VWS V14.01,2013-04-03 18:05:00,
2013-04-03 14:10:00,40.0,20.9,30.37,WNW,301,2.0,16.0,46,0.00,,,0.00,VWS V14.01,2013-04-03 18:10:00,
2013-04-03 14:15:00,40.9,20.1,30.37,NNW,329,4.0,16.0,43,0.00,,,0.00,VWS V14.01,2013-04-03 18:15:00,
2013-04-03 14:20:00,40.8,19.5,30.36,NW,304,3.0,16.0,42,0.00,,,0.00,VWS V14.01,2013-04-03 18:20:00,
2013-04-03 14:25:00,41.1,19.2,30.36,North,5,7.0,16.0,41,0.00,,,0.00,VWS V14.01,2013-04-03 18:25:00,
2013-04-03 14:30:00,41.2,18.7,30.36,NNE,13,1.0,16.0,40,0.00,,,0.00,VWS V14.01,2013-04-03 18:30:00,
2013-04-03 14:35:00,41.7,20.9,30.37,North,350,1.0,16.0,43,0.00,,,0.00,VWS V14.01,2013-04-03 18:35:00,
2013-04-03 14:40:00,41.7,19.2,30.37,West,281,2.0,16.0,40,0.00,,,0.00,VWS V14.01,2013-04-03 18:40:00,
2013-04-03 14:45:00,41.1,19.2,30.37,NNW,336,5.0,16.0,41,0.00,,,0.00,VWS V14.01,2013-04-03 18:45:00,
2013-04-03 14:50:00,41.5,18.4,30.37,NW,319,0.0,16.0,39,0.00,,,0.00,VWS V14.01,2013-04-03 18:50:00,
2013-04-03 14:55:00,40.9,17.9,30.36,NNE,25,4.0,16.0,39,0.00,,,0.00,VWS V14.01,2013-04-03 18:55:00,
2013-04-03 15:00:00,41.1,18.0,30.36,NNE,22,2.0,7.0,39,0.00,,,0.00,VWS V14.01,2013-04-03 19:00:00,
2013-04-03 15:05:00,41.4,18.3,30.36,NNE,19,6.0,10.0,39,0.00,,,0.00,VWS V14.01,2013-04-03 19:05:00,
2013-04-03 15:10:00,41.0,18.0,30.37,West,261,4.0,10.0,39,0.00,,,0.00,VWS V14.01,2013-04-03 19:10:00,
2013-04-03 15:15:00,41.2,18.7,30.37,NNW,334,0.0,11.0,40,0.00,,,0.00,VWS V14.01,2013-04-03 19:15:00,
2013-04-03 15:20:00,41.1,18.0,30.37,NW,309,0.0,11.0,39,0.00,,,0.00,VWS V14.01,2013-04-03 19:20:00,
2013-04-03 15:25:00,41.3,18.8,30.37,WNW,303,0.0,11.0,40,0.00,,,0.00,VWS V14.01,2013-04-03 19:25:00,
2013-04-03 15:30:00,41.5,18.4,30.37,NE,43,3.0,11.0,39,0.00,,,0.00,VWS V14.01,2013-04-03 19:30:00,
2013-04-03 15:35:00,41.9,18.8,30.37,WNW,298,4.0,11.0,39,0.00,,,0.00,VWS V14.01,2013-04-03 19:35:00,
2013-04-03 15:40:00,41.7,19.2,30.36,West,268,2.0,11.0,40,0.00,,,0.00,VWS V14.01,2013-04-03 19:40:00,
2013-04-03 15:45:00,41.9,18.8,30.36,WNW,290,2.0,11.0,39,0.00,,,0.00,VWS V14.01,2013-04-03 19:45:00,
2013-04-03 15:50:00,42.2,19.0,30.36,North,9,0.0,11.0,39,0.00,,,0.00,VWS V14.01,2013-04-03 19:50:00,
2013-04-03 15:55:00,42.4,19.2,30.36,NNW,329,2.0,11.0,39,0.00,,,0.00,VWS V14.01,2013-04-03 19:55:00,
2013-04-03 16:00:00,42.4,18.6,30.35,NW,311,0.0,0.0,38,0.00,,,0.00,VWS V14.01,2013-04-03 20:00:00,
2013-04-03 16:05:00,42.0,18.9,30.35,SW,236,3.0,11.0,39,0.00,,,0.00,VWS V14.01,2013-04-03 20:05:00,
2013-04-03 16:10:00,42.1,19.0,30.35,SW,228,1.0,11.0,39,0.00,,,0.00,VWS V14.01,2013-04-03 20:10:00,
2013-04-03 16:15:00,42.3,17.9,30.35,NNE,22,5.0,11.0,37,0.00,,,0.00,VWS V14.01,2013-04-03 20:15:00,
2013-04-03 16:20:00,41.9,17.5,30.35,NNW,331,4.0,11.0,37,0.00,,,0.00,VWS V14.01,2013-04-03 20:20:00,
2013-04-03 16:25:00,42.4,18.6,30.35,WNW,290,5.0,11.0,38,0.00,,,0.00,VWS V14.01,2013-04-03 20:25:00,
2013-04-03 16:30:00,42.8,19.0,30.36,NNE,14,5.0,11.0,38,0.00,,,0.00,VWS V14.01,2013-04-03 20:30:00,
2013-04-03 16:35:00,42.3,17.3,30.36,SE,128,0.0,11.0,36,0.00,,,0.00,VWS V14.01,2013-04-03 20:35:00,
2013-04-03 16:40:00,42.0,17.6,30.36,ENE,67,4.0,11.0,37,0.00,,,0.00,VWS V14.01,2013-04-03 20:40:00,
2013-04-03 16:45:00,41.4,18.3,30.36,ENE,67,0.0,11.0,39,0.00,,,0.00,VWS V14.01,2013-04-03 20:45:00,
2013-04-03 16:50:00,41.8,17.5,30.35,ESE,102,1.0,11.0,37,0.00,,,0.00,VWS V14.01,2013-04-03 20:50:00,
2013-04-03 16:56:00,42.1,18.3,30.35,ESE,102,0.0,11.0,38,0.00,,,0.00,VWS V14.01,2013-04-03 20:56:00,
2013-04-03 17:00:00,42.8,19.6,30.35,SSE,158,2.0,11.0,39,0.00,,,0.00,VWS V14.01,2013-04-03 21:00:00,
2013-04-03 17:01:00,42.9,19.7,30.35,SSW,197,3.0,3.0,39,0.00,,,0.00,VWS V14.01,2013-04-03 21:01:00,
2013-04-03 17:06:00,43.6,20.9,30.35,WSW,249,0.0,6.0,40,0.00,,,0.00,VWS V14.01,2013-04-03 21:06:00,
2013-04-03 17:11:00,43.6,19.7,30.35,SW,225,0.0,6.0,38,0.00,,,0.00,VWS V14.01,2013-04-03 21:11:00,
2013-04-03 17:16:00,43.5,19.6,30.35,SW,230,5.0,6.0,38,0.00,,,0.00,VWS V14.01,2013-04-03 21:16:00,
2013-04-03 17:21:00,43.1,18.6,30.35,SW,229,2.0,6.0,37,0.00,,,0.00,VWS V14.01,2013-04-03 21:21:00,
2013-04-03 17:26:00,42.9,18.4,30.35,SW,225,2.0,6.0,37,0.00,,,0.00,VWS V14.01,2013-04-03 21:26:00,
2013-04-03 17:31:00,42.6,18.2,30.36,SSW,211,0.0,6.0,37,0.00,,,0.00,VWS V14.01,2013-04-03 21:31:00,
2013-04-03 17:37:00,42.7,20.1,30.36,SSW,203,1.0,6.0,40,0.00,,,0.00,VWS V14.01,2013-04-03 21:37:00,
2013-04-03 17:42:00,42.8,19.0,30.36,WSW,238,2.0,7.0,38,0.00,,,0.00,VWS V14.01,2013-04-03 21:42:00,
2013-04-03 17:47:00,42.9,19.7,30.36,WSW,250,1.0,7.0,39,0.00,,,0.00,VWS V14.01,2013-04-03 21:47:00,
2013-04-03 17:52:00,43.1,18.6,30.35,WSW,253,1.0,7.0,37,0.00,,,0.00,VWS V14.01,2013-04-03 21:52:00,
2013-04-03 17:57:00,43.2,19.3,30.35,WSW,253,0.0,7.0,38,0.00,,,0.00,VWS V14.01,2013-04-03 21:57:00,
2013-04-03 18:00:00,43.1,18.6,30.35,WNW,303,5.0,9.0,37,0.00,,,0.00,VWS V14.01,2013-04-03 22:00:00,
2013-04-03 18:02:00,42.9,18.4,30.35,NW,304,5.0,5.0,37,0.00,,,0.00,VWS V14.01,2013-04-03 22:02:00,
2013-04-03 18:07:00,42.5,17.4,30.35,NW,324,1.0,7.0,36,0.00,,,0.00,VWS V14.01,2013-04-03 22:07:00,
2013-04-03 18:12:00,42.6,18.2,30.35,NW,324,1.0,7.0,37,0.00,,,0.00,VWS V14.01,2013-04-03 22:12:00,
2013-04-03 18:17:00,42.8,18.4,30.35,NW,324,0.0,7.0,37,0.00,,,0.00,VWS V14.01,2013-04-03 22:17:00,
2013-04-03 18:22:00,42.7,17.6,30.35,NW,324,2.0,7.0,36,0.00,,,0.00,VWS V14.01,2013-04-03 22:22:00,
2013-04-03 18:27:00,42.7,17.6,30.35,NW,323,1.0,7.0,36,0.00,,,0.00,VWS V14.01,2013-04-03 22:27:00,
2013-04-03 18:32:00,42.6,18.2,30.35,North,355,0.0,7.0,37,0.00,,,0.00,VWS V14.01,2013-04-03 22:32:00,
2013-04-03 18:37:00,42.6,17.5,30.35,North,355,0.0,7.0,36,0.00,,,0.00,VWS V14.01,2013-04-03 22:37:00,
2013-04-03 18:42:00,42.8,19.0,30.35,NNE,22,0.0,7.0,38,0.00,,,0.00,VWS V14.01,2013-04-03 22:42:00,
2013-04-03 18:47:00,42.7,17.6,30.35,NNE,22,0.0,7.0,36,0.00,,,0.00,VWS V14.01,2013-04-03 22:47:00,
2013-04-03 18:52:00,42.5,17.4,30.35,NNE,22,0.0,7.0,36,0.00,,,0.00,VWS V14.01,2013-04-03 22:52:00,
2013-04-03 18:57:00,42.0,16.4,30.35,ENE,68,3.0,7.0,35,0.00,,,0.00,VWS V14.01,2013-04-03 22:57:00,
2013-04-03 19:00:00,41.8,16.8,30.36,East,84,0.0,7.0,36,0.00,,,0.00,VWS V14.01,2013-04-03 23:00:00,
2013-04-03 19:02:00,41.7,16.7,30.35,East,84,0.0,1.0,36,0.00,,,0.00,VWS V14.01,2013-04-03 23:02:00,
2013-04-03 19:07:00,41.8,16.8,30.36,East,84,0.0,1.0,36,0.00,,,0.00,VWS V14.01,2013-04-03 23:07:00,
2013-04-03 19:12:00,41.8,16.8,30.36,East,79,1.0,5.0,36,0.00,,,0.00,VWS V14.01,2013-04-03 23:12:00,
2013-04-03 19:17:00,41.5,16.5,30.35,East,79,0.0,5.0,36,0.00,,,0.00,VWS V14.01,2013-04-03 23:17:00,
2013-04-03 19:22:00,41.6,17.3,30.35,ENE,78,0.0,5.0,37,0.00,,,0.00,VWS V14.01,2013-04-03 23:22:00,
2013-04-03 19:27:00,41.6,17.3,30.35,ENE,78,0.0,5.0,37,0.00,,,0.00,VWS V14.01,2013-04-03 23:27:00,
2013-04-03 19:32:00,41.5,17.2,30.34,ENE,78,0.0,5.0,37,0.00,,,0.00,VWS V14.01,2013-04-03 23:32:00,
2013-04-03 19:37:00,41.2,16.9,30.34,ENE,78,0.0,5.0,37,0.00,,,0.00,VWS V14.01,2013-04-03 23:37:00,
2013-04-03 19:42:00,40.7,17.1,30.34,ENE,78,0.0,5.0,38,0.00,,,0.00,VWS V14.01,2013-04-03 23:42:00,
2013-04-03 19:47:00,40.4,16.2,30.34,ENE,78,0.0,5.0,37,0.00,,,0.00,VWS V14.01,2013-04-03 23:47:00,
2013-04-03 19:52:00,40.1,16.5,30.34,ENE,78,0.0,5.0,38,0.00,,,0.00,VWS V14.01,2013-04-03 23:52:00,
2013-04-03 19:57:00,39.7,16.2,30.33,ENE,78,0.0,5.0,38,0.00,,,0.00,VWS V14.01,2013-04-03 23:57:00,
2013-04-03 20:00:00,39.5,16.6,30.33,ENE,78,0.0,5.0,39,0.00,,,0.00,VWS V14.01,2013-04-04 00:00:00,
2013-04-03 20:02:00,39.3,16.4,30.33,ENE,78,0.0,0.0,39,0.00,,,0.00,VWS V14.01,2013-04-04 00:02:00,
2013-04-03 20:07:00,38.9,16.6,30.33,ENE,78,0.0,0.0,40,0.00,,,0.00,VWS V14.01,2013-04-04 00:07:00,
2013-04-03 20:12:00,38.6,16.4,30.33,ENE,78,0.0,0.0,40,0.00,,,0.00,VWS V14.01,2013-04-04 00:12:00,
2013-04-03 20:17:00,38.2,16.6,30.33,ENE,78,0.0,0.0,41,0.00,,,0.00,VWS V14.01,2013-04-04 00:17:00,
2013-04-03 20:22:00,37.8,16.8,30.33,ENE,78,0.0,0.0,42,0.00,,,0.00,VWS V14.01,2013-04-04 00:22:00,
2013-04-03 20:27:00,37.5,16.5,30.33,ENE,78,0.0,0.0,42,0.00,,,0.00,VWS V14.01,2013-04-04 00:27:00,
2013-04-03 20:32:00,37.2,16.2,30.33,ENE,78,0.0,0.0,42,0.00,,,0.00,VWS V14.01,2013-04-04 00:32:00,
2013-04-03 20:37:00,36.9,16.5,30.33,ENE,78,0.0,0.0,43,0.00,,,0.00,VWS V14.01,2013-04-04 00:37:00,
2013-04-03 20:42:00,36.5,16.7,30.33,ENE,78,0.0,0.0,44,0.00,,,0.00,VWS V14.01,2013-04-04 00:42:00,
2013-04-03 20:47:00,36.2,16.9,30.33,ENE,78,0.0,0.0,45,0.00,,,0.00,VWS V14.01,2013-04-04 00:47:00,
2013-04-03 20:52:00,35.8,17.1,30.33,ENE,78,0.0,0.0,46,0.00,,,0.00,VWS V14.01,2013-04-04 00:52:00,
2013-04-03 20:57:00,35.3,16.6,30.33,ENE,78,0.0,0.0,46,0.00,,,0.00,VWS V14.01,2013-04-04 00:57:00,
2013-04-03 21:00:00,35.0,16.8,30.33,ENE,78,0.0,0.0,47,0.00,,,0.00,VWS V14.01,2013-04-04 01:00:00,
2013-04-03 21:02:00,34.7,16.5,30.33,ENE,78,0.0,0.0,47,0.00,,,0.00,VWS V14.01,2013-04-04 01:02:00,
2013-04-03 21:07:00,34.4,16.8,30.33,ENE,78,0.0,0.0,48,0.00,,,0.00,VWS V14.01,2013-04-04 01:07:00,
2013-04-03 21:12:00,34.0,16.9,30.33,ENE,78,0.0,0.0,49,0.00,,,0.00,VWS V14.01,2013-04-04 01:12:00,
2013-04-03 21:17:00,33.6,17.0,30.34,ENE,78,0.0,0.0,50,0.00,,,0.00,VWS V14.01,2013-04-04 01:17:00,
2013-04-03 21:22:00,33.2,17.0,30.34,ENE,78,0.0,0.0,51,0.00,,,0.00,VWS V14.01,2013-04-04 01:22:00,
2013-04-03 21:27:00,32.9,17.7,30.34,ENE,78,0.0,0.0,53,0.00,,,0.00,VWS V14.01,2013-04-04 01:27:00,
2013-04-03 21:32:00,32.8,18.8,30.34,ESE,103,3.0,6.0,56,0.00,,,0.00,VWS V14.01,2013-04-04 01:32:00,
2013-04-03 21:37:00,32.9,19.4,30.35,ESE,103,0.0,6.0,57,0.00,,,0.00,VWS V14.01,2013-04-04 01:37:00,
2013-04-03 21:42:00,33.0,19.0,30.35,ESE,105,6.0,6.0,56,0.00,,,0.00,VWS V14.01,2013-04-04 01:42:00,
2013-04-03 21:47:00,33.3,19.3,30.35,ESE,113,1.0,7.0,56,0.00,,,0.00,VWS V14.01,2013-04-04 01:47:00,
2013-04-03 21:52:00,33.4,19.4,30.35,ESE,113,3.0,7.0,56,0.00,,,0.00,VWS V14.01,2013-04-04 01:52:00,
2013-04-03 21:57:00,33.4,19.4,30.35,ESE,113,0.0,7.0,56,0.00,,,0.00,VWS V14.01,2013-04-04 01:57:00,
2013-04-03 22:00:00,33.3,19.7,30.35,ESE,113,4.0,7.0,57,0.00,,,0.00,VWS V14.01,2013-04-04 02:00:00,
2013-04-03 22:02:00,33.3,19.7,30.34,ESE,113,0.0,4.0,57,0.00,,,0.00,VWS V14.01,2013-04-04 02:02:00,
2013-04-03 22:07:00,33.1,19.5,30.34,ESE,113,0.0,4.0,57,0.00,,,0.00,VWS V14.01,2013-04-04 02:07:00,
2013-04-03 22:12:00,32.9,19.8,30.34,ESE,113,0.0,5.0,58,0.00,,,0.00,VWS V14.01,2013-04-04 02:12:00,
2013-04-03 22:17:00,32.8,19.7,30.34,ESE,113,0.0,5.0,58,0.00,,,0.00,VWS V14.01,2013-04-04 02:17:00,
2013-04-03 22:22:00,32.7,19.6,30.34,ESE,113,0.0,5.0,58,0.00,,,0.00,VWS V14.01,2013-04-04 02:22:00,
2013-04-03 22:27:00,32.6,19.5,30.34,ESE,113,0.0,5.0,58,0.00,,,0.00,VWS V14.01,2013-04-04 02:27:00,
2013-04-03 22:32:00,32.5,19.4,30.34,ESE,113,0.0,5.0,58,0.00,,,0.00,VWS V14.01,2013-04-04 02:32:00,
2013-04-03 22:37:00,32.3,19.6,30.34,ESE,113,0.0,5.0,59,0.00,,,0.00,VWS V14.01,2013-04-04 02:37:00,
2013-04-03 22:42:00,32.0,19.3,30.34,ESE,113,0.0,5.0,59,0.00,,,0.00,VWS V14.01,2013-04-04 02:42:00,
2013-04-03 22:47:00,31.8,19.5,30.34,ESE,113,0.0,5.0,60,0.00,,,0.00,VWS V14.01,2013-04-04 02:47:00,
2013-04-03 22:52:00,31.6,19.3,30.33,ESE,113,0.0,5.0,60,0.00,,,0.00,VWS V14.01,2013-04-04 02:52:00,
2013-04-03 22:57:00,31.4,19.5,30.33,ESE,113,0.0,5.0,61,0.00,,,0.00,VWS V14.01,2013-04-04 02:57:00,
2013-04-03 23:00:00,31.3,19.4,30.33,ESE,114,0.0,5.0,61,0.00,,,0.00,VWS V14.01,2013-04-04 03:00:00,
2013-04-03 23:02:00,31.3,19.8,30.33,ESE,114,0.0,0.0,62,0.00,,,0.00,VWS V14.01,2013-04-04 03:02:00,
2013-04-03 23:07:00,31.1,19.6,30.33,ESE,113,0.0,1.0,62,0.00,,,0.00,VWS V14.01,2013-04-04 03:07:00,
2013-04-03 23:12:00,31.0,19.9,30.33,ESE,113,0.0,2.0,63,0.00,,,0.00,VWS V14.01,2013-04-04 03:12:00,
2013-04-03 23:18:00,30.8,19.7,30.33,ESE,113,0.0,2.0,63,0.00,,,0.00,VWS V14.01,2013-04-04 03:18:00,
2013-04-03 23:23:00,30.7,19.6,30.33,ESE,113,0.0,2.0,63,0.00,,,0.00,VWS V14.01,2013-04-04 03:23:00,
2013-04-03 23:28:00,30.6,19.5,30.33,ESE,113,0.0,3.0,63,0.00,,,0.00,VWS V14.01,2013-04-04 03:28:00,
2013-04-03 23:33:00,30.6,19.5,30.32,ESE,114,0.0,3.0,63,0.00,,,0.00,VWS V14.01,2013-04-04 03:33:00,
2013-04-03 23:37:00,30.5,19.4,30.33,ESE,113,0.0,3.0,63,0.00,,,0.00,VWS V14.01,2013-04-04 03:37:00,
2013-04-03 23:42:00,30.5,19.4,30.33,ESE,113,0.0,3.0,63,0.00,,,0.00,VWS V14.01,2013-04-04 03:42:00,
2013-04-03 23:47:00,30.3,19.2,30.33,ESE,113,0.0,3.0,63,0.00,,,0.00,VWS V14.01,2013-04-04 03:47:00,
2013-04-03 23:52:00,30.2,19.1,30.33,ESE,113,0.0,3.0,63,0.00,,,0.00,VWS V14.01,2013-04-04 03:52:00,
2013-04-03 23:57:00,30.0,19.0,30.33,ESE,113,0.0,3.0,63,0.00,,,0.00,VWS V14.01,2013-04-04 03:57:00,